FW1659 Weather Reports


time (UTC)temp
C
wind
direction
speed
KPH
gust
KPH
rain 1hr
cm
rain 24hr
cm
rain mn
cm
humidity
%
barometer
mb
20260510164501 27 101 14.5 19.3 0.00 0.00 0.00 84 1014.5
20260510163106 28 96 11.3 16.1 0.00 0.00 0.00 83 1014.4
20260510161601 28 93 9.7 16.1 0.00 0.00 0.00 84 1014.4
20260510160059 28 90 9.7 16.1 0.00 0.00 0.00 83 1014.5
20260510154556 28 98 9.7 14.5 0.00 0.00 0.00 83 1014.2
20260510153055 27 129 6.4 11.3 0.00 0.00 0.00 86 1013.9
20260510151553 26 125 6.4 11.3 0.00 0.00 0.00 87 1013.9
20260510150046 26 136 11.3 14.5 0.00 0.00 0.00 88 1013.9
20260510144548 26 145 6.4 14.5 0.00 0.00 0.00 89 1013.8
20260510143041 26 137 6.4 11.3 0.00 0.00 0.00 90 1013.7
20260510141538 26 131 9.7 14.5 0.00 0.00 0.00 90 1013.5
20260510140032 26 164 8.0 14.5 0.00 0.00 0.00 91 1013.3
20260510134534 26 161 9.7 14.5 0.00 0.00 0.00 91 1013.1
20260510133033 25 134 8.0 14.5 0.00 0.00 0.00 92 1013.0
20260510131529 25 142 6.4 12.9 0.00 0.00 0.00 92 1012.9
20260510130028 25 149 8.0 14.5 0.00 0.00 0.00 92 1012.6
20260510124526 25 153 12.9 16.1 0.00 0.00 0.00 92 1012.4
20260510123029 25 165 9.7 16.1 0.00 0.00 0.00 92 1012.2
20260510121524 25 155 12.9 16.1 0.00 0.00 0.00 92 1012.1
20260510120024 25 125 8.0 12.9 0.00 0.00 0.00 92 1011.9
20260510114524 25 150 8.0 12.9 0.00 0.20 0.00 92 1011.9
20260510113023 25 171 8.0 14.5 0.00 0.20 0.00 91 1011.9
20260510111522 25 157 11.3 14.5 0.00 0.20 0.00 92 1011.9
20260510110032 25 135 6.4 12.9 0.00 0.20 0.00 91 1012.0
20260510104523 25 140 9.7 16.1 0.00 0.38 0.00 92 1012.1
20260510103023 25 147 8.0 14.5 0.00 0.38 0.00 91 1012.0
20260510101519 25 140 9.7 14.5 0.00 0.38 0.00 91 1011.9
20260510100018 25 148 9.7 14.5 0.00 0.38 0.00 91 1011.9
20260510094518 25 117 4.8 8.0 0.00 0.41 0.00 91 1011.9
20260510093018 25 119 6.4 12.9 0.00 0.41 0.00 90 1011.9
20260510091515 25 138 11.3 17.7 0.00 0.41 0.00 90 1011.9
20260510090015 25 139 8.0 12.9 0.00 0.41 0.00 90 1011.8
20260510084514 25 166 9.7 14.5 0.00 0.41 0.00 89 1011.7
20260510083017 25 151 8.0 14.5 0.00 0.41 0.00 89 1011.9
20260510081513 25 150 9.7 16.1 0.00 0.41 0.00 88 1011.9
20260510080014 25 163 12.9 17.7 0.00 0.41 0.00 88 1011.8
20260510074511 25 128 12.9 19.3 0.00 0.43 0.00 88 1011.9
20260510073009 25 140 12.9 17.7 0.00 0.43 0.00 88 1012.0
20260510071508 25 145 11.3 19.3 0.00 0.43 0.00 88 1012.0
20260510070012 25 167 14.5 24.1 0.00 0.43 0.00 88 1012.0
20260510064505 25 150 14.5 20.9 0.00 0.46 0.00 89 1012.1
20260510063004 25 132 12.9 17.7 0.00 0.46 0.00 89 1012.1
20260510061502 25 165 12.9 19.3 0.00 0.46 0.00 89 1012.0
20260510060004 26 154 14.5 22.5 0.00 0.46 0.00 88 1011.9
20260510054601 26 141 16.1 22.5 0.00 0.46 0.00 88 1012.3
20260510053059 26 138 16.1 22.5 0.00 0.46 0.00 87 1012.4
20260510051602 26 130 11.3 19.3 0.00 0.46 0.00 86 1012.3
20260510050053 26 134 14.5 19.3 0.00 0.46 0.00 86 1011.9
20260510044555 26 132 14.5 17.7 0.00 0.46 0.46 86 1011.8
20260510043100 26 165 9.7 17.7 0.00 0.46 0.46 85 1011.5
20260510041608 26 161 16.1 22.5 0.00 0.46 0.46 85 1011.2
20260510040051 26 150 17.7 25.7 0.00 0.46 0.46 84 1011.1
20260510034551 26 164 17.7 22.5 0.00 0.46 0.46 84 1011.0
20260510033050 26 162 20.9 29.0 0.00 0.46 0.46 83 1010.6
20260510031555 26 180 20.9 30.6 0.00 0.46 0.46 81 1010.7
20260510030051 26 142 19.3 25.7 0.00 0.46 0.46 80 1010.9
20260510024556 26 155 20.9 27.4 0.00 0.46 0.46 79 1010.7
20260510023048 26 128 19.3 27.4 0.00 0.46 0.46 77 1010.8
20260510021546 26 128 17.7 24.1 0.00 0.46 0.46 76 1010.6
20260510020051 27 135 14.5 20.9 0.00 0.46 0.46 76 1010.4
20260510014545 27 139 16.1 20.9 0.00 0.46 0.46 75 1010.3
20260510013053 27 139 16.1 22.5 0.00 0.46 0.46 75 1009.9
20260510011544 27 132 16.1 22.5 0.00 0.46 0.46 76 1009.7
20260510010059 27 142 14.5 25.7 0.00 0.46 0.46 76 1009.7
20260510004543 27 136 19.3 24.1 0.00 0.46 0.46 76 1009.7
20260510003043 28 135 17.7 22.5 0.00 0.46 0.46 77 1009.6
20260510001543 28 128 19.3 24.1 0.00 0.46 0.46 76 1009.6
20260510000043 28 134 17.7 24.1 0.00 0.46 0.46 76 1009.6
20260509234557 28 131 17.7 24.1 0.00 0.46 0.46 76 1009.6
20260509233039 28 153 19.3 25.7 0.00 0.46 0.46 76 1009.6
20260509231538 28 138 20.9 29.0 0.00 0.46 0.46 76 1009.7
20260509230038 28 153 20.9 29.0 0.00 0.46 0.46 76 1009.8
20260509224538 28 140 19.3 24.1 0.00 0.46 0.46 75 1009.6
20260509223037 28 128 17.7 24.1 0.00 0.46 0.46 76 1009.7
20260509221559 28 161 16.1 25.7 0.00 0.46 0.46 77 1009.5
20260509220035 29 138 25.7 30.6 0.00 0.46 0.46 76 1009.5
20260509214536 30 146 11.3 16.1 0.00 0.46 0.46 74 1009.6
20260509213033 30 132 12.9 16.1 0.00 0.46 0.46 73 1009.4
20260509211532 30 137 11.3 17.7 0.00 0.46 0.46 77 1009.4
20260509210030 30 132 9.7 14.5 0.00 0.46 0.46 76 1009.5
20260509204527 30 140 8.0 14.5 0.00 0.46 0.46 77 1009.7
20260509203028 29 142 8.0 14.5 0.00 0.46 0.46 79 1009.7
20260509201523 28 144 11.3 16.1 0.00 0.46 0.46 78 1010.0
20260509200023 29 134 9.7 14.5 0.00 0.46 0.46 77 1010.0
20260509194522 29 134 6.4 11.3 0.00 0.46 0.46 75 1010.1
20260509193020 28 121 4.8 14.5 0.00 0.46 0.46 79 1010.2
20260509191517 28 115 6.4 12.9 0.00 0.46 0.46 79 1010.4
20260509190025 28 87 8.0 14.5 0.00 0.46 0.46 79 1010.3
20260509184526 27 87 6.4 12.9 0.00 0.46 0.46 79 1010.5
20260509183017 27 81 9.7 14.5 0.00 0.46 0.46 79 1010.6
20260509181512 27 95 8.0 16.1 0.00 0.46 0.46 79 1010.9
20260509180011 27 109 9.7 12.9 0.00 0.46 0.46 78 1010.9
20260509174510 27 105 9.7 12.9 0.00 0.46 0.46 77 1011.0
20260509173012 27 124 4.8 6.4 0.00 0.46 0.46 78 1010.7
20260509171507 26 153 3.2 14.5 0.00 0.46 0.46 80 1010.8
20260509170012 27 136 8.0 14.5 0.00 0.46 0.46 79 1011.1